contact:dominique.lefevre@mio.osupytheas.fr, maurice.libes@osupytheas.fr, didier.mallarino@osupytheas.fr
Project:EMSO http://www.emso-fr.org/EMSO-France
Depth: 2436.0 m
Title:EMSO Ligure Ouest : Data MII capteur MICROCAT
DateTime_Computer,Latitude,Longitude,Temperature,Conductivity,Pressure,DateTime_Instrument
DateTime_Computer,Latitude,Longitude,degC,S m-1,dbar,DateTime_Instrument
2023-08-24T00:01:47Z,42.805,6.029,13.3024,4.60098,2470.81,2023-8-24T02:04:07Z
2023-08-24T00:04:50Z,42.805,6.029,13.3022,4.60097,2470.773,2023-8-24T02:07:10Z
2023-08-24T00:07:53Z,42.805,6.029,13.3026,4.60104,2470.81,2023-8-24T02:10:13Z
2023-08-24T00:10:56Z,42.805,6.029,13.3024,4.60095,2470.787,2023-8-24T02:13:16Z
2023-08-24T00:13:59Z,42.805,6.029,13.3023,4.60096,2470.763,2023-8-24T02:16:19Z
2023-08-24T00:17:02Z,42.805,6.029,13.3021,4.60094,2470.763,2023-8-24T02:19:23Z
2023-08-24T00:20:06Z,42.805,6.029,13.3026,4.60099,2470.787,2023-8-24T02:22:26Z
2023-08-24T00:23:09Z,42.805,6.029,13.3021,4.60101,2470.81,2023-8-24T02:25:29Z
2023-08-24T00:26:12Z,42.805,6.029,13.3027,4.60103,2470.763,2023-8-24T02:28:32Z
2023-08-24T00:29:15Z,42.805,6.029,13.3027,4.60107,2470.777,2023-8-24T02:31:35Z
2023-08-24T00:32:18Z,42.805,6.029,13.3021,4.60120,2470.777,2023-8-24T02:34:38Z
2023-08-24T00:35:21Z,42.805,6.029,13.3032,4.60127,2470.777,2023-8-24T02:37:41Z
2023-08-24T00:38:24Z,42.805,6.029,13.3021,4.60121,2470.787,2023-8-24T02:40:44Z
2023-08-24T00:41:27Z,42.805,6.029,13.3025,4.60110,2470.777,2023-8-24T02:43:47Z
2023-08-24T00:44:30Z,42.805,6.029,13.3029,4.60107,2470.787,2023-8-24T02:46:50Z
2023-08-24T00:47:33Z,42.805,6.029,13.3020,4.60105,2470.787,2023-8-24T02:49:53Z
2023-08-24T00:50:36Z,42.805,6.029,13.3021,4.60098,2470.787,2023-8-24T02:52:56Z
2023-08-24T00:53:39Z,42.805,6.029,13.3021,4.60104,2470.777,2023-8-24T02:56:00Z
2023-08-24T00:56:43Z,42.805,6.029,13.3023,4.60103,2470.763,2023-8-24T02:59:03Z
2023-08-24T00:59:46Z,42.805,6.029,13.3026,4.60104,2470.777,2023-8-24T03:02:06Z
2023-08-24T01:02:49Z,42.805,6.029,13.3028,4.60131,2470.763,2023-8-24T03:05:09Z
2023-08-24T01:05:52Z,42.805,6.029,13.3037,4.60141,2470.74,2023-8-24T03:08:12Z
2023-08-24T01:08:55Z,42.805,6.029,13.3057,4.60169,2470.777,2023-8-24T03:11:15Z
2023-08-24T01:11:58Z,42.805,6.029,13.3030,4.60141,2470.763,2023-8-24T03:14:18Z
2023-08-24T01:15:01Z,42.805,6.029,13.3065,4.60125,2470.8,2023-8-24T03:17:21Z
2023-08-24T01:18:04Z,42.805,6.029,13.3081,4.60145,2470.777,2023-8-24T03:20:24Z
2023-08-24T01:21:07Z,42.805,6.029,13.3093,4.60160,2470.777,2023-8-24T03:23:27Z
2023-08-24T01:24:10Z,42.805,6.029,13.3084,4.60147,2470.768,2023-8-24T03:26:30Z
2023-08-24T01:27:13Z,42.805,6.029,13.3082,4.60119,2470.8,2023-8-24T03:29:33Z
2023-08-24T01:30:16Z,42.805,6.029,13.3093,4.60132,2470.763,2023-8-24T03:32:36Z
2023-08-24T01:33:20Z,42.805,6.029,13.3067,4.60141,2470.777,2023-8-24T03:35:40Z
2023-08-24T01:36:23Z,42.805,6.029,13.3063,4.60188,2470.74,2023-8-24T03:38:43Z
2023-08-24T01:39:26Z,42.805,6.029,13.3078,4.60128,2470.73,2023-8-24T03:41:46Z
2023-08-24T01:42:29Z,42.805,6.029,13.3081,4.60137,2470.763,2023-8-24T03:44:49Z
2023-08-24T01:45:32Z,42.805,6.029,13.3077,4.60123,2470.74,2023-8-24T03:47:52Z
2023-08-24T01:48:35Z,42.805,6.029,13.3092,4.60137,2470.763,2023-8-24T03:50:55Z
2023-08-24T01:51:38Z,42.805,6.029,13.3105,4.60132,2470.74,2023-8-24T03:53:58Z
2023-08-24T01:54:41Z,42.805,6.029,13.3089,4.60128,2470.717,2023-8-24T03:57:01Z
2023-08-24T01:57:44Z,42.805,6.029,13.3094,4.60167,2470.73,2023-8-24T04:00:04Z
2023-08-24T02:00:47Z,42.805,6.029,13.3076,4.60124,2470.74,2023-8-24T04:03:07Z
2023-08-24T02:03:50Z,42.805,6.029,13.3101,4.60120,2470.754,2023-8-24T04:06:10Z
2023-08-24T02:06:53Z,42.805,6.029,13.3098,4.60128,2470.754,2023-8-24T04:09:13Z
2023-08-24T02:09:57Z,42.805,6.029,13.3109,4.60127,2470.73,2023-8-24T04:12:17Z
2023-08-24T02:13:00Z,42.805,6.029,13.3095,4.60117,2470.73,2023-8-24T04:15:20Z
2023-08-24T02:16:03Z,42.805,6.029,13.3093,4.60125,2470.693,2023-8-24T04:18:23Z
2023-08-24T02:19:06Z,42.805,6.029,13.3084,4.60124,2470.754,2023-8-24T04:21:26Z
2023-08-24T02:22:09Z,42.805,6.029,13.3081,4.60113,2470.693,2023-8-24T04:24:29Z
2023-08-24T02:25:12Z,42.805,6.029,13.3078,4.60127,2470.73,2023-8-24T04:27:32Z
2023-08-24T02:28:15Z,42.805,6.029,13.3095,4.60121,2470.707,2023-8-24T04:30:35Z
2023-08-24T02:31:18Z,42.805,6.029,13.3083,4.60114,2470.707,2023-8-24T04:33:38Z
2023-08-24T02:34:21Z,42.805,6.029,13.3093,4.60119,2470.73,2023-8-24T04:36:41Z
2023-08-24T02:37:24Z,42.805,6.029,13.3082,4.60119,2470.73,2023-8-24T04:39:44Z
2023-08-24T02:40:27Z,42.805,6.029,13.3075,4.60126,2470.717,2023-8-24T04:42:47Z
2023-08-24T02:43:30Z,42.805,6.029,13.3101,4.60125,2470.707,2023-8-24T04:45:50Z
2023-08-24T02:46:33Z,42.805,6.029,13.3103,4.60117,2470.707,2023-8-24T04:48:54Z
2023-08-24T02:49:37Z,42.805,6.029,13.3091,4.60121,2470.707,2023-8-24T04:51:57Z
2023-08-24T02:52:40Z,42.805,6.029,13.3067,4.60113,2470.717,2023-8-24T04:55:00Z
2023-08-24T02:55:43Z,42.805,6.029,13.3085,4.60117,2470.754,2023-8-24T04:58:03Z
2023-08-24T02:58:46Z,42.805,6.029,13.3073,4.60119,2470.707,2023-8-24T05:01:06Z
2023-08-24T03:01:49Z,42.805,6.029,13.3069,4.60119,2470.73,2023-8-24T05:04:09Z
2023-08-24T03:04:52Z,42.805,6.029,13.3070,4.60117,2470.73,2023-8-24T05:07:12Z
2023-08-24T03:07:55Z,42.805,6.029,13.3079,4.60126,2470.707,2023-8-24T05:10:15Z
2023-08-24T03:10:58Z,42.805,6.029,13.3097,4.60134,2470.717,2023-8-24T05:13:18Z
2023-08-24T03:14:01Z,42.805,6.029,13.3085,4.60114,2470.717,2023-8-24T05:16:21Z
2023-08-24T03:17:04Z,42.805,6.029,13.3084,4.60123,2470.67,2023-8-24T05:19:24Z
2023-08-24T03:20:07Z,42.805,6.029,13.3076,4.60111,2470.717,2023-8-24T05:22:27Z
2023-08-24T03:23:10Z,42.805,6.029,13.3067,4.60110,2470.67,2023-8-24T05:25:31Z
2023-08-24T03:26:14Z,42.805,6.029,13.3075,4.60122,2470.73,2023-8-24T05:28:34Z
2023-08-24T03:29:17Z,42.805,6.029,13.3079,4.60114,2470.693,2023-8-24T05:31:37Z
2023-08-24T03:32:20Z,42.805,6.029,13.3071,4.60123,2470.693,2023-8-24T05:34:40Z
2023-08-24T03:35:23Z,42.805,6.029,13.3082,4.60122,2470.693,2023-8-24T05:37:43Z
2023-08-24T03:38:26Z,42.805,6.029,13.3100,4.60118,2470.707,2023-8-24T05:40:46Z
2023-08-24T03:41:29Z,42.805,6.029,13.3087,4.60117,2470.717,2023-8-24T05:43:49Z
2023-08-24T03:44:32Z,42.805,6.029,13.3078,4.60127,2470.707,2023-8-24T05:46:52Z
2023-08-24T03:47:35Z,42.805,6.029,13.3065,4.60119,2470.693,2023-8-24T05:49:55Z
2023-08-24T03:50:38Z,42.805,6.029,13.3057,4.60127,2470.693,2023-8-24T05:52:58Z
2023-08-24T03:53:41Z,42.805,6.029,13.3063,4.60122,2470.707,2023-8-24T05:56:01Z
2023-08-24T03:56:44Z,42.805,6.029,13.3044,4.60150,2470.67,2023-8-24T05:59:04Z
2023-08-24T03:59:47Z,42.805,6.029,13.3078,4.60123,2470.684,2023-8-24T06:02:07Z
2023-08-24T04:02:50Z,42.805,6.029,13.3069,4.60139,2470.717,2023-8-24T06:05:10Z
2023-08-24T04:05:53Z,42.805,6.029,13.3067,4.60125,2470.693,2023-8-24T06:08:14Z
2023-08-24T04:08:57Z,42.805,6.029,13.3067,4.60125,2470.67,2023-8-24T06:11:17Z
2023-08-24T04:12:00Z,42.805,6.029,13.3087,4.60122,2470.717,2023-8-24T06:14:20Z
2023-08-24T04:15:03Z,42.805,6.029,13.3056,4.60112,2470.693,2023-8-24T06:17:23Z
2023-08-24T04:18:06Z,42.805,6.029,13.3070,4.60110,2470.67,2023-8-24T06:20:26Z
2023-08-24T04:21:09Z,42.805,6.029,13.3062,4.60132,2470.693,2023-8-24T06:23:29Z
2023-08-24T04:24:12Z,42.805,6.029,13.3077,4.60118,2470.693,2023-8-24T06:26:32Z
2023-08-24T04:27:15Z,42.805,6.029,13.3069,4.60125,2470.693,2023-8-24T06:29:35Z
2023-08-24T04:30:18Z,42.805,6.029,13.3074,4.60133,2470.646,2023-8-24T06:32:38Z
2023-08-24T04:33:21Z,42.805,6.029,13.3100,4.60114,2470.67,2023-8-24T06:35:41Z
2023-08-24T04:36:24Z,42.805,6.029,13.3090,4.60125,2470.67,2023-8-24T06:38:44Z
2023-08-24T04:39:27Z,42.805,6.029,13.3064,4.60104,2470.67,2023-8-24T06:41:47Z
2023-08-24T04:42:30Z,42.805,6.029,13.3069,4.60126,2470.67,2023-8-24T06:44:51Z
2023-08-24T04:45:34Z,42.805,6.029,13.3076,4.60132,2470.693,2023-8-24T06:47:54Z
2023-08-24T04:48:37Z,42.805,6.029,13.3084,4.60132,2470.67,2023-8-24T06:50:57Z
2023-08-24T04:51:40Z,42.805,6.029,13.3085,4.60141,2470.67,2023-8-24T06:54:00Z
2023-08-24T04:54:43Z,42.805,6.029,13.3075,4.60131,2470.67,2023-8-24T06:57:03Z
2023-08-24T04:57:46Z,42.805,6.029,13.3077,4.60131,2470.707,2023-8-24T07:00:06Z
2023-08-24T05:00:49Z,42.805,6.029,13.3076,4.60116,2470.67,2023-8-24T07:03:09Z
2023-08-24T05:03:52Z,42.805,6.029,13.3092,4.60123,2470.707,2023-8-24T07:06:12Z
2023-08-24T05:06:55Z,42.805,6.029,13.3067,4.60119,2470.67,2023-8-24T07:09:15Z
2023-08-24T05:09:58Z,42.805,6.029,13.3083,4.60170,2470.693,2023-8-24T07:12:18Z
2023-08-24T05:13:01Z,42.805,6.029,13.3085,4.60119,2470.707,2023-8-24T07:15:21Z
2023-08-24T05:16:04Z,42.805,6.029,13.3067,4.60119,2470.646,2023-8-24T07:18:24Z
2023-08-24T05:19:07Z,42.805,6.029,13.3106,4.60116,2470.684,2023-8-24T07:21:27Z
2023-08-24T05:22:11Z,42.805,6.029,13.3085,4.60122,2470.693,2023-8-24T07:24:31Z
2023-08-24T05:25:14Z,42.805,6.029,13.3104,4.60116,2470.646,2023-8-24T07:27:34Z
2023-08-24T05:28:17Z,42.805,6.029,13.3070,4.60117,2470.67,2023-8-24T07:30:37Z
2023-08-24T05:31:20Z,42.805,6.029,13.3073,4.60117,2470.67,2023-8-24T07:33:40Z
2023-08-24T05:34:23Z,42.805,6.029,13.3070,4.60128,2470.684,2023-8-24T07:36:43Z
2023-08-24T05:37:26Z,42.805,6.029,13.3071,4.60109,2470.684,2023-8-24T07:39:46Z
2023-08-24T05:40:29Z,42.805,6.029,13.3059,4.60122,2470.67,2023-8-24T07:42:49Z
2023-08-24T05:43:32Z,42.805,6.029,13.3062,4.60113,2470.707,2023-8-24T07:45:52Z
2023-08-24T05:46:35Z,42.805,6.029,13.3084,4.60144,2470.67,2023-8-24T07:48:55Z
2023-08-24T05:49:38Z,42.805,6.029,13.3056,4.60140,2470.661,2023-8-24T07:51:58Z
2023-08-24T05:52:41Z,42.805,6.029,13.3052,4.60125,2470.646,2023-8-24T07:55:01Z
2023-08-24T05:55:44Z,42.805,6.029,13.3068,4.60128,2470.637,2023-8-24T07:58:04Z
2023-08-24T05:58:47Z,42.805,6.029,13.3067,4.60138,2470.693,2023-8-24T08:01:08Z
2023-08-24T06:01:51Z,42.805,6.029,13.3058,4.60173,2470.684,2023-8-24T08:04:11Z
2023-08-24T06:04:54Z,42.805,6.029,13.3063,4.60135,2470.646,2023-8-24T08:07:14Z
2023-08-24T06:07:57Z,42.805,6.029,13.3089,4.60125,2470.67,2023-8-24T08:10:17Z
2023-08-24T06:11:00Z,42.805,6.029,13.3067,4.60136,2470.661,2023-8-24T08:13:20Z
2023-08-24T06:14:03Z,42.805,6.029,13.3060,4.60117,2470.67,2023-8-24T08:16:23Z
2023-08-24T06:17:06Z,42.805,6.029,13.3089,4.60152,2470.646,2023-8-24T08:19:26Z
2023-08-24T06:20:09Z,42.805,6.029,13.3062,4.60159,2470.67,2023-8-24T08:22:29Z
2023-08-24T06:23:12Z,42.805,6.029,13.3082,4.60162,2470.646,2023-8-24T08:25:32Z
2023-08-24T06:26:15Z,42.805,6.029,13.3109,4.60105,2470.684,2023-8-24T08:28:35Z
2023-08-24T06:29:18Z,42.805,6.029,13.3105,4.60122,2470.707,2023-8-24T08:31:38Z
2023-08-24T06:32:20Z,42.805,6.029,13.3069,4.60130,2470.624,2023-8-24T08:34:40Z
2023-08-24T06:35:23Z,42.805,6.029,13.3072,4.60142,2470.684,2023-8-24T08:37:43Z
2023-08-24T06:38:26Z,42.805,6.029,13.3075,4.60119,2470.661,2023-8-24T08:40:46Z
2023-08-24T06:41:29Z,42.805,6.029,13.3045,4.60166,2470.646,2023-8-24T08:43:49Z
2023-08-24T06:44:32Z,42.805,6.029,13.3070,4.60137,2470.684,2023-8-24T08:46:52Z
2023-08-24T06:47:35Z,42.805,6.029,13.3062,4.60152,2470.646,2023-8-24T08:49:55Z
2023-08-24T06:50:38Z,42.805,6.029,13.3081,4.60111,2470.684,2023-8-24T08:52:59Z
2023-08-24T06:53:42Z,42.805,6.029,13.3070,4.60151,2470.637,2023-8-24T08:56:02Z
2023-08-24T06:56:45Z,42.805,6.029,13.3063,4.60127,2470.67,2023-8-24T08:59:05Z
2023-08-24T06:59:48Z,42.805,6.029,13.3075,4.60122,2470.67,2023-8-24T09:02:08Z
2023-08-24T07:02:51Z,42.805,6.029,13.3078,4.60147,2470.67,2023-8-24T09:05:11Z
2023-08-24T07:05:54Z,42.805,6.029,13.3064,4.60144,2470.646,2023-8-24T09:08:14Z
2023-08-24T07:08:57Z,42.805,6.029,13.3041,4.60146,2470.684,2023-8-24T09:11:17Z
2023-08-24T07:12:00Z,42.805,6.029,13.3060,4.60139,2470.684,2023-8-24T09:14:20Z
2023-08-24T07:15:03Z,42.805,6.029,13.3070,4.60140,2470.693,2023-8-24T09:17:23Z
2023-08-24T07:18:06Z,42.805,6.029,13.3071,4.60150,2470.684,2023-8-24T09:20:26Z
2023-08-24T07:21:09Z,42.805,6.029,13.3062,4.60180,2470.661,2023-8-24T09:23:29Z
2023-08-24T07:24:12Z,42.805,6.029,13.3059,4.60156,2470.684,2023-8-24T09:26:32Z
2023-08-24T07:27:15Z,42.805,6.029,13.3056,4.60131,2470.693,2023-8-24T09:29:35Z
2023-08-24T07:30:19Z,42.805,6.029,13.3067,4.60129,2470.67,2023-8-24T09:32:39Z
2023-08-24T07:33:22Z,42.805,6.029,13.3055,4.60112,2470.661,2023-8-24T09:35:42Z
2023-08-24T07:36:25Z,42.805,6.029,13.3063,4.60141,2470.67,2023-8-24T09:38:45Z
2023-08-24T07:39:28Z,42.805,6.029,13.3064,4.60137,2470.693,2023-8-24T09:41:48Z
2023-08-24T07:42:31Z,42.805,6.029,13.3061,4.60125,2470.661,2023-8-24T09:44:51Z
2023-08-24T07:45:34Z,42.805,6.029,13.3057,4.60107,2470.67,2023-8-24T09:47:54Z
2023-08-24T07:48:37Z,42.805,6.029,13.3058,4.60115,2470.693,2023-8-24T09:50:57Z
2023-08-24T07:51:40Z,42.805,6.029,13.3050,4.60129,2470.684,2023-8-24T09:54:00Z
2023-08-24T07:54:43Z,42.805,6.029,13.3054,4.60123,2470.646,2023-8-24T09:57:03Z
2023-08-24T07:57:46Z,42.805,6.029,13.3052,4.60117,2470.67,2023-8-24T10:00:06Z
2023-08-24T08:00:49Z,42.805,6.029,13.3075,4.60118,2470.684,2023-8-24T10:03:09Z
2023-08-24T08:03:52Z,42.805,6.029,13.3073,4.60112,2470.684,2023-8-24T10:06:12Z
2023-08-24T08:06:55Z,42.805,6.029,13.3065,4.60122,2470.693,2023-8-24T10:09:16Z
2023-08-24T08:09:59Z,42.805,6.029,13.3090,4.60115,2470.684,2023-8-24T10:12:19Z
2023-08-24T08:13:02Z,42.805,6.029,13.3065,4.60122,2470.707,2023-8-24T10:15:22Z
2023-08-24T08:16:05Z,42.805,6.029,13.3065,4.60119,2470.707,2023-8-24T10:18:25Z
2023-08-24T08:19:08Z,42.805,6.029,13.3055,4.60122,2470.67,2023-8-24T10:21:28Z
2023-08-24T08:22:11Z,42.805,6.029,13.3067,4.60114,2470.693,2023-8-24T10:24:31Z
2023-08-24T08:25:14Z,42.805,6.029,13.3078,4.60116,2470.707,2023-8-24T10:27:34Z
2023-08-24T08:28:17Z,42.805,6.029,13.3061,4.60110,2470.693,2023-8-24T10:30:37Z
2023-08-24T08:31:19Z,42.805,6.029,13.3081,4.60113,2470.646,2023-8-24T10:33:39Z
2023-08-24T08:34:22Z,42.805,6.029,13.3061,4.60108,2470.707,2023-8-24T10:36:42Z
2023-08-24T08:37:25Z,42.805,6.029,13.3059,4.60127,2470.684,2023-8-24T10:39:45Z
2023-08-24T08:40:28Z,42.805,6.029,13.3082,4.60147,2470.693,2023-8-24T10:42:48Z
2023-08-24T08:43:31Z,42.805,6.029,13.3061,4.60122,2470.707,2023-8-24T10:45:51Z
2023-08-24T08:46:34Z,42.805,6.029,13.3068,4.60119,2470.67,2023-8-24T10:48:54Z
2023-08-24T08:49:37Z,42.805,6.029,13.3061,4.60119,2470.67,2023-8-24T10:51:57Z
2023-08-24T08:52:40Z,42.805,6.029,13.3065,4.60119,2470.73,2023-8-24T10:55:00Z
2023-08-24T08:55:43Z,42.805,6.029,13.3062,4.60122,2470.707,2023-8-24T10:58:03Z
2023-08-24T08:58:46Z,42.805,6.029,13.3102,4.60114,2470.717,2023-8-24T11:01:06Z
2023-08-24T09:01:49Z,42.805,6.029,13.3060,4.60134,2470.717,2023-8-24T11:04:09Z
2023-08-24T09:04:53Z,42.805,6.029,13.3095,4.60126,2470.684,2023-8-24T11:07:13Z
2023-08-24T09:07:56Z,42.805,6.029,13.3087,4.60116,2470.73,2023-8-24T11:10:16Z
2023-08-24T09:10:59Z,42.805,6.029,13.3075,4.60117,2470.754,2023-8-24T11:13:19Z
2023-08-24T09:14:02Z,42.805,6.029,13.3073,4.60127,2470.73,2023-8-24T11:16:22Z
2023-08-24T09:17:05Z,42.805,6.029,13.3062,4.60118,2470.717,2023-8-24T11:19:25Z
2023-08-24T09:20:08Z,42.805,6.029,13.3071,4.60110,2470.73,2023-8-24T11:22:28Z
2023-08-24T09:23:11Z,42.805,6.029,13.3064,4.60116,2470.707,2023-8-24T11:25:31Z
2023-08-24T09:26:14Z,42.805,6.029,13.3061,4.60105,2470.717,2023-8-24T11:28:34Z
2023-08-24T09:29:17Z,42.805,6.029,13.3078,4.60111,2470.707,2023-8-24T11:31:37Z
2023-08-24T09:32:20Z,42.805,6.029,13.3065,4.60119,2470.73,2023-8-24T11:34:40Z
2023-08-24T09:35:23Z,42.805,6.029,13.3067,4.60122,2470.754,2023-8-24T11:37:43Z
2023-08-24T09:38:26Z,42.805,6.029,13.3071,4.60119,2470.707,2023-8-24T11:40:47Z
2023-08-24T09:41:30Z,42.805,6.029,13.3069,4.60114,2470.717,2023-8-24T11:43:50Z
2023-08-24T09:44:33Z,42.805,6.029,13.3056,4.60113,2470.754,2023-8-24T11:46:53Z
2023-08-24T09:47:36Z,42.805,6.029,13.3058,4.60112,2470.717,2023-8-24T11:49:56Z
2023-08-24T09:50:39Z,42.805,6.029,13.3054,4.60104,2470.763,2023-8-24T11:52:59Z
2023-08-24T09:53:42Z,42.805,6.029,13.3048,4.60107,2470.754,2023-8-24T11:56:02Z
2023-08-24T09:56:45Z,42.805,6.029,13.3058,4.60120,2470.73,2023-8-24T11:59:05Z
2023-08-24T09:59:48Z,42.805,6.029,13.3055,4.60113,2470.754,2023-8-24T12:02:08Z
2023-08-24T10:02:51Z,42.805,6.029,13.3067,4.60108,2470.717,2023-8-24T12:05:11Z
2023-08-24T10:05:54Z,42.805,6.029,13.3059,4.60107,2470.726,2023-8-24T12:08:14Z
2023-08-24T10:08:57Z,42.805,6.029,13.3062,4.60117,2470.763,2023-8-24T12:11:17Z
2023-08-24T10:12:00Z,42.805,6.029,13.3048,4.60110,2470.777,2023-8-24T12:14:20Z
2023-08-24T10:15:03Z,42.805,6.029,13.3056,4.60111,2470.763,2023-8-24T12:17:24Z
2023-08-24T10:18:07Z,42.805,6.029,13.3055,4.60104,2470.74,2023-8-24T12:20:27Z
2023-08-24T10:21:10Z,42.805,6.029,13.3072,4.60112,2470.75,2023-8-24T12:23:30Z
2023-08-24T10:24:13Z,42.805,6.029,13.3048,4.60117,2470.74,2023-8-24T12:26:33Z
2023-08-24T10:27:16Z,42.805,6.029,13.3050,4.60117,2470.717,2023-8-24T12:29:36Z
2023-08-24T10:30:17Z,42.805,6.029,13.3053,4.60106,2470.763,2023-8-24T12:32:37Z
2023-08-24T10:33:20Z,42.805,6.029,13.3056,4.60107,2470.763,2023-8-24T12:35:40Z
2023-08-24T10:36:23Z,42.805,6.029,13.3051,4.60110,2470.763,2023-8-24T12:38:43Z
2023-08-24T10:39:27Z,42.805,6.029,13.3066,4.60109,2470.777,2023-8-24T12:41:47Z
2023-08-24T10:42:30Z,42.805,6.029,13.3056,4.60114,2470.777,2023-8-24T12:44:50Z
2023-08-24T10:45:33Z,42.805,6.029,13.3050,4.60110,2470.717,2023-8-24T12:47:53Z
2023-08-24T10:48:36Z,42.805,6.029,13.3056,4.60112,2470.754,2023-8-24T12:50:56Z
2023-08-24T10:51:39Z,42.805,6.029,13.3060,4.60113,2470.777,2023-8-24T12:53:59Z
2023-08-24T10:54:42Z,42.805,6.029,13.3052,4.60106,2470.777,2023-8-24T12:57:02Z
2023-08-24T10:57:45Z,42.805,6.029,13.3052,4.60110,2470.777,2023-8-24T13:00:05Z
2023-08-24T11:00:48Z,42.805,6.029,13.3054,4.60113,2470.787,2023-8-24T13:03:08Z
2023-08-24T11:03:51Z,42.805,6.029,13.3051,4.60110,2470.777,2023-8-24T13:06:11Z
2023-08-24T11:06:54Z,42.805,6.029,13.3055,4.60107,2470.74,2023-8-24T13:09:14Z
2023-08-24T11:09:57Z,42.805,6.029,13.3046,4.60107,2470.777,2023-8-24T13:12:17Z
2023-08-24T11:13:00Z,42.805,6.029,13.3042,4.60104,2470.74,2023-8-24T13:15:20Z
2023-08-24T11:16:03Z,42.805,6.029,13.3048,4.60106,2470.763,2023-8-24T13:18:24Z
2023-08-24T11:19:07Z,42.805,6.029,13.3050,4.60109,2470.777,2023-8-24T13:21:27Z
2023-08-24T11:22:10Z,42.805,6.029,13.3063,4.60109,2470.787,2023-8-24T13:24:30Z
2023-08-24T11:25:13Z,42.805,6.029,13.3054,4.60114,2470.74,2023-8-24T13:27:33Z
2023-08-24T11:28:16Z,42.805,6.029,13.3079,4.60114,2470.74,2023-8-24T13:30:36Z
2023-08-24T11:31:19Z,42.805,6.029,13.3078,4.60115,2470.763,2023-8-24T13:33:39Z
2023-08-24T11:34:22Z,42.805,6.029,13.3056,4.60107,2470.763,2023-8-24T13:36:42Z
2023-08-24T11:37:25Z,42.805,6.029,13.3053,4.60110,2470.777,2023-8-24T13:39:45Z
2023-08-24T11:40:28Z,42.805,6.029,13.3064,4.60110,2470.8,2023-8-24T13:42:48Z
2023-08-24T11:43:31Z,42.805,6.029,13.3049,4.60110,2470.787,2023-8-24T13:45:51Z
2023-08-24T11:46:34Z,42.805,6.029,13.3060,4.60108,2470.8,2023-8-24T13:48:54Z
2023-08-24T11:49:37Z,42.805,6.029,13.3061,4.60117,2470.777,2023-8-24T13:51:58Z
2023-08-24T11:52:41Z,42.805,6.029,13.3069,4.60117,2470.787,2023-8-24T13:55:01Z
2023-08-24T11:55:44Z,42.805,6.029,13.3074,4.60110,2470.777,2023-8-24T13:58:04Z
2023-08-24T11:58:47Z,42.805,6.029,13.3063,4.60115,2470.74,2023-8-24T14:01:07Z
2023-08-24T12:01:50Z,42.805,6.029,13.3082,4.60119,2470.787,2023-8-24T14:04:10Z
2023-08-24T12:04:53Z,42.805,6.029,13.3077,4.60119,2470.754,2023-8-24T14:07:13Z
2023-08-24T12:07:56Z,42.805,6.029,13.3070,4.60120,2470.754,2023-8-24T14:10:16Z
2023-08-24T12:10:59Z,42.805,6.029,13.3069,4.60115,2470.81,2023-8-24T14:13:19Z
2023-08-24T12:14:02Z,42.805,6.029,13.3084,4.60117,2470.763,2023-8-24T14:16:22Z
2023-08-24T12:17:05Z,42.805,6.029,13.3063,4.60126,2470.787,2023-8-24T14:19:25Z
2023-08-24T12:20:08Z,42.805,6.029,13.3077,4.60107,2470.787,2023-8-24T14:22:28Z
2023-08-24T12:23:11Z,42.805,6.029,13.3059,4.60120,2470.763,2023-8-24T14:25:31Z
2023-08-24T12:26:14Z,42.805,6.029,13.3080,4.60110,2470.763,2023-8-24T14:28:35Z
2023-08-24T12:29:17Z,42.805,6.029,13.3092,4.60124,2470.763,2023-8-24T14:31:38Z
2023-08-24T12:32:21Z,42.805,6.029,13.3082,4.60130,2470.74,2023-8-24T14:34:41Z
2023-08-24T12:35:24Z,42.805,6.029,13.3072,4.60122,2470.777,2023-8-24T14:37:44Z
2023-08-24T12:38:27Z,42.805,6.029,13.3081,4.60115,2470.763,2023-8-24T14:40:47Z
2023-08-24T12:41:30Z,42.805,6.029,13.3070,4.60110,2470.787,2023-8-24T14:43:50Z
2023-08-24T12:44:33Z,42.805,6.029,13.3069,4.60128,2470.74,2023-8-24T14:46:53Z
2023-08-24T12:47:36Z,42.805,6.029,13.3076,4.60127,2470.8,2023-8-24T14:49:56Z
2023-08-24T12:50:39Z,42.805,6.029,13.3082,4.60117,2470.763,2023-8-24T14:52:59Z
2023-08-24T12:53:42Z,42.805,6.029,13.3063,4.60116,2470.787,2023-8-24T14:56:02Z
2023-08-24T12:56:45Z,42.805,6.029,13.3063,4.60119,2470.777,2023-8-24T14:59:05Z
2023-08-24T12:59:48Z,42.805,6.029,13.3098,4.60119,2470.754,2023-8-24T15:02:08Z
2023-08-24T13:02:51Z,42.805,6.029,13.3084,4.60125,2470.74,2023-8-24T15:05:12Z
2023-08-24T13:05:55Z,42.805,6.029,13.3073,4.60116,2470.8,2023-8-24T15:08:15Z
2023-08-24T13:08:58Z,42.805,6.029,13.3064,4.60107,2470.763,2023-8-24T15:11:18Z
2023-08-24T13:12:01Z,42.805,6.029,13.3057,4.60111,2470.777,2023-8-24T15:14:21Z
2023-08-24T13:15:04Z,42.805,6.029,13.3067,4.60108,2470.787,2023-8-24T15:17:24Z
2023-08-24T13:18:07Z,42.805,6.029,13.3065,4.60110,2470.74,2023-8-24T15:20:27Z
2023-08-24T13:21:10Z,42.805,6.029,13.3063,4.60116,2470.777,2023-8-24T15:23:30Z
2023-08-24T13:24:13Z,42.805,6.029,13.3063,4.60119,2470.777,2023-8-24T15:26:33Z
2023-08-24T13:27:16Z,42.805,6.029,13.3078,4.60110,2470.754,2023-8-24T15:29:36Z
2023-08-24T13:30:19Z,42.805,6.029,13.3089,4.60122,2470.787,2023-8-24T15:32:39Z
2023-08-24T13:33:22Z,42.805,6.029,13.3070,4.60113,2470.74,2023-8-24T15:35:42Z
2023-08-24T13:36:25Z,42.805,6.029,13.3069,4.60114,2470.763,2023-8-24T15:38:46Z
2023-08-24T13:39:29Z,42.805,6.029,13.3093,4.60118,2470.763,2023-8-24T15:41:49Z
2023-08-24T13:42:32Z,42.805,6.029,13.3069,4.60114,2470.763,2023-8-24T15:44:52Z
2023-08-24T13:45:35Z,42.805,6.029,13.3081,4.60112,2470.777,2023-8-24T15:47:55Z
2023-08-24T13:48:38Z,42.805,6.029,13.3073,4.60119,2470.754,2023-8-24T15:50:58Z
2023-08-24T13:51:41Z,42.805,6.029,13.3053,4.60112,2470.754,2023-8-24T15:54:01Z
2023-08-24T13:54:44Z,42.805,6.029,13.3084,4.60122,2470.754,2023-8-24T15:57:04Z
2023-08-24T13:57:47Z,42.805,6.029,13.3070,4.60116,2470.777,2023-8-24T16:00:07Z
2023-08-24T14:00:50Z,42.805,6.029,13.3067,4.60121,2470.763,2023-8-24T16:03:10Z
2023-08-24T14:03:53Z,42.805,6.029,13.3067,4.60119,2470.777,2023-8-24T16:06:13Z
2023-08-24T14:06:56Z,42.805,6.029,13.3076,4.60111,2470.754,2023-8-24T16:09:16Z
2023-08-24T14:09:59Z,42.805,6.029,13.3057,4.60128,2470.763,2023-8-24T16:12:19Z
2023-08-24T14:13:02Z,42.805,6.029,13.3084,4.60116,2470.777,2023-8-24T16:15:22Z
2023-08-24T14:16:05Z,42.805,6.029,13.3071,4.60132,2470.763,2023-8-24T16:18:26Z
2023-08-24T14:19:09Z,42.805,6.029,13.3070,4.60111,2470.777,2023-8-24T16:21:29Z
2023-08-24T14:22:12Z,42.805,6.029,13.3064,4.60119,2470.777,2023-8-24T16:24:32Z
2023-08-24T14:25:15Z,42.805,6.029,13.3056,4.60117,2470.754,2023-8-24T16:27:35Z
2023-08-24T14:28:18Z,42.805,6.029,13.3067,4.60117,2470.74,2023-8-24T16:30:38Z
2023-08-24T14:31:21Z,42.805,6.029,13.3070,4.60119,2470.74,2023-8-24T16:33:41Z
2023-08-24T14:34:24Z,42.805,6.029,13.3069,4.60114,2470.763,2023-8-24T16:36:44Z
2023-08-24T14:37:27Z,42.805,6.029,13.3069,4.60117,2470.8,2023-8-24T16:39:47Z
2023-08-24T14:40:30Z,42.805,6.029,13.3067,4.60125,2470.754,2023-8-24T16:42:50Z
2023-08-24T14:43:33Z,42.805,6.029,13.3067,4.60121,2470.754,2023-8-24T16:45:53Z
2023-08-24T14:46:36Z,42.805,6.029,13.3068,4.60122,2470.777,2023-8-24T16:48:56Z
2023-08-24T14:49:39Z,42.805,6.029,13.3070,4.60114,2470.754,2023-8-24T16:52:00Z
2023-08-24T14:52:43Z,42.805,6.029,13.3068,4.60116,2470.763,2023-8-24T16:55:03Z
2023-08-24T14:55:46Z,42.805,6.029,13.3063,4.60122,2470.754,2023-8-24T16:58:06Z
2023-08-24T14:58:49Z,42.805,6.029,13.3063,4.60110,2470.74,2023-8-24T17:01:09Z
2023-08-24T15:01:52Z,42.805,6.029,13.3072,4.60119,2470.754,2023-8-24T17:04:12Z
2023-08-24T15:04:55Z,42.805,6.029,13.3065,4.60114,2470.74,2023-8-24T17:07:15Z
2023-08-24T15:07:58Z,42.805,6.029,13.3064,4.60113,2470.754,2023-8-24T17:10:18Z
2023-08-24T15:11:01Z,42.805,6.029,13.3067,4.60119,2470.74,2023-8-24T17:13:21Z
2023-08-24T15:14:04Z,42.805,6.029,13.3074,4.60114,2470.754,2023-8-24T17:16:24Z